Pueblo, CO

5:20 AM MDT on May 29, 2017 (GMT -0600)
Pueblo Memorial

Weather History for KPUB - January, 2013

Change the Weather History Date:

Saturday, January 26, 2013

  Actual Average Record
Temperature  
Mean Temperature 40 °F 31 °F  
Max Temperature 58 °F 47 °F 74 °F (1951)
Min Temperature 22 °F 14 °F -13 °F (1996)
Degree Days  
Heating Degree Days 25 34  
Month to date heating degree days 936 898  
Since 1 July heating degree days 3158 3261  
Cooling Degree Days 0 0  
Month to date cooling degree days 0 0  
Year to date cooling degree days 0 0  
Moisture  
Dew Point 22 °F    
Average Humidity 50    
Maximum Humidity 70    
Minimum Humidity 30    
Precipitation  
Precipitation T in 0.01 in 0.28 in (1944)
Month to date precipitation 0.02 0.29  
Year to date precipitation 0.02 0.29  
Snow  
Snow 0.00 in 0.20 in 6.30 in (1944)
Month to date snowfall 1.0 5.5  
Since 1 July snowfall 6.6 17.0  
Snow Depth 0.00 in    
Sea Level Pressure  
Sea Level Pressure 29.91 in    
Wind  
Wind Speed 5 mph (ENE)    
Max Wind Speed 13 mph    
Max Gust Speed 16 mph    
Visibility 10 miles    
Events Rain    
T = Trace of Precipitation, MM = Missing Value Source: NWS Daily Summary

Daily Weather History Graph

Daily Weather History Graph

Search for Another Location

Airport or City:

Trip Planner

Search our weather history database for the weather conditions in past years. The results will help you decide how hot, cold, wet, or windy it might be!

Date:

Astronomy

Jan. 26, 2013 Rise Set
Actual Time 7:07 AM MST 5:14 PM MST
Civil Twilight 6:39 AM MST 5:42 PM MST
Nautical Twilight 6:07 AM MST 6:14 PM MST
Astronomical Twilight 5:36 AM MST 6:45 PM MST
Moon 5:10 PM MST (1/26) 6:27 AM MST (1/26)
Length of Visible Light 11h 03m
Length of Day
10h 06m
Full, 100% of the Moon is Illuminated
Jan 26
Full
Jan 26
Full
Feb 3
Last Quarter
Feb 10
New
Feb 17
First Quarter

Hourly Weather History & Observations

Time (MST) Temp. Windchill Dew Point Humidity Pressure Visibility Wind Dir Wind Speed Gust Speed Precip Events Conditions
12:53 AM 28.9 °F 21.1 °F 17.1 °F 61% 30.08 in 10.0 mi WSW 8.1 mph - N/A   Clear
1:53 AM 24.1 °F 14.4 °F 12.9 °F 62% 30.07 in 10.0 mi NW 9.2 mph - N/A   Clear
2:53 AM 24.1 °F 17.0 °F 12.9 °F 62% 30.04 in 10.0 mi West 5.8 mph - N/A   Clear
3:53 AM 25.0 °F - 15.1 °F 66% 30.02 in 10.0 mi Calm Calm - N/A   Clear
4:53 AM 23.0 °F 13.9 °F 12.0 °F 63% 30.02 in 10.0 mi North 8.1 mph - N/A   Clear
5:53 AM 26.1 °F 21.9 °F 15.1 °F 63% 30.04 in 10.0 mi WSW 3.5 mph - N/A   Clear
6:53 AM 27.0 °F - 16.0 °F 63% 30.05 in 10.0 mi Calm Calm - N/A   Clear
7:53 AM 30.9 °F - 19.0 °F 61% 30.04 in 10.0 mi Calm Calm - N/A   Clear
8:53 AM 39.9 °F 35.8 °F 21.9 °F 49% 30.01 in 10.0 mi South 5.8 mph - N/A   Clear
9:53 AM 44.1 °F - 23.0 °F 43% 30.00 in 10.0 mi Calm Calm - N/A   Clear
10:53 AM 48.9 °F - 24.1 °F 38% 29.98 in 10.0 mi Calm Calm - N/A   Partly Cloudy
11:53 AM 52.0 °F - 24.1 °F 34% 29.93 in 10.0 mi Calm Calm - N/A   Mostly Cloudy
12:53 PM 53.1 °F - 24.1 °F 32% 29.88 in 10.0 mi SE 5.8 mph - N/A   Mostly Cloudy
1:53 PM 55.9 °F - 24.1 °F 29% 29.85 in 10.0 mi East 8.1 mph - N/A   Mostly Cloudy
2:53 PM 57.0 °F - 26.1 °F 30% 29.83 in 10.0 mi ESE 9.2 mph - N/A   Scattered Clouds
3:53 PM 54.0 °F - 26.1 °F 34% 29.81 in 10.0 mi ESE 11.5 mph - N/A   Mostly Cloudy
4:53 PM 51.1 °F - 24.1 °F 35% 29.83 in 10.0 mi East 8.1 mph - N/A   Overcast
5:53 PM 48.0 °F - 30.9 °F 52% 29.82 in 10.0 mi ENE 5.8 mph - 0.00 in Rain Light Rain
6:53 PM 45.0 °F 40.6 °F 33.1 °F 63% 29.81 in 10.0 mi NE 8.1 mph - 0.00 in   Mostly Cloudy
7:53 PM 39.9 °F 34.5 °F 30.0 °F 68% 29.81 in 10.0 mi NNW 8.1 mph - N/A   Mostly Cloudy
8:53 PM 41.0 °F 35.2 °F 28.9 °F 62% 29.76 in 10.0 mi North 9.2 mph - N/A   Scattered Clouds
9:53 PM 37.9 °F - 27.0 °F 65% 29.75 in 10.0 mi Calm Calm - N/A   Mostly Cloudy
10:53 PM 37.9 °F - 27.0 °F 65% 29.69 in 10.0 mi Calm Calm - N/A   Clear
11:53 PM 33.1 °F 28.7 °F 27.0 °F 78% 29.70 in 10.0 mi SW 4.6 mph - N/A   Clear